Regional Weather Roundup
Issued by NWS

Home | Current Version | Previous Version | Graphics & Text | Print | Product List | Glossary On
Versions: 1 2 3 4 5 6 7 8 9 10 11 12 13 14 15 16 17 18 19 20 21 22 23 24 25 26 27 28 29 30 31 32 33 34 35 36 37 38 39 40 41 42 43 44 45 46 47 48 49 50
000
ASUS45 KCYS 260910
RWRWY

WYOMING REGIONAL WEATHER ROUNDUP
NATIONAL WEATHER SERVICE CHEYENNE WY
200 AM MST THU FEB 26 2015

NOTE:  "FAIR" INDICATES FEW OR NO CLOUDS BELOW 12,000 FEET
WITH NO SIGNIFICANT WEATHER AND/OR OBSTRUCTIONS TO VISIBILITY.

WYZ001-261000-
YELLOWSTONE NATIONAL PARK

CITY           SKY/WX    TMP DP  RH WIND       PRES   REMARKS
LK YELLOWSTONE   N/A     -1  -5  82 CALM      30.03F
W YELLOWSTONE  NOT AVBL

$$
WYZ002>013-054>058-071-098>099-261000-
NORTHERN WYOMING

CITY           SKY/WX    TMP DP  RH WIND       PRES   REMARKS
JACKSON        FAIR      10   7  85 CALM      30.05S
CODY           CLOUDY    10   9  92 NE10      30.19S WCI  -3
GREYBULL       CLOUDY    16   3  56 NW15      30.24F WCI   1
WORLAND        LGT SNOW  17  12  80 NE5       30.23S WCI  10
SHERIDAN       LGT SNOW  10   5  80 N6        30.31S WCI   0
BUFFALO        LGT SNOW   7   4  87 CALM      30.22S FOG
GILLETTE       CLOUDY     5   0  79 N5        30.27S HAZE    WCI  -4
HULETT         CLOUDY     5   1  85 N3        30.30R FOG
NEWCASTLE      FAIR       5   0  78 NW9       30.27F WCI  -9

$$
WYZ014>020-022>026-101>103-261000-
CENTRAL WYOMING

CITY           SKY/WX    TMP DP  RH WIND       PRES   REMARKS
BIG PINEY      CLOUDY    19  14  81 SE8       30.05F WCI   9
PINEDALE       LGT SNOW  18  14  86 CALM      30.06F
DUBOIS         PTSUNNY   10   5  79 W7        30.02S WCI   0
LANDER         CLOUDY    17  14  88 N5        30.11S WCI  10
RIVERTON       FLURRIES  14  10  84 NE10      30.13S WCI   1
CASPER         CLOUDY    11   4  73 NE8       30.18F WCI  -1
DOUGLAS        FLURRIES  10   5  80 NW6       30.23R WCI   0

$$
WYZ021-027>030-104>119-261000-
SOUTHERN WYOMING

CITY           SKY/WX    TMP DP  RH WIND       PRES   REMARKS
EVANSTON       FAIR      24  16  71 S5        30.01F WCI  18
FORT BRIDGER   CLOUDY    21  20  94 N6        30.06S WCI  13
ROCK SPRINGS   FAIR      13   8  81 E9        30.06F WCI   1
DIXON          FAIR      17  12  78 E5        30.09S WCI  10
RAWLINS        CLOUDY    15  10  80 CALM      30.07S
SARATOGA       CLOUDY    10   9  92 CALM      30.07R
LARAMIE        CLOUDY     7   4  87 W5        30.03S WCI  -2
CHEYENNE       CLOUDY     9   4  80 NE7       30.10R WCI  -2
TORRINGTON     CLOUDY    12   2  64 N15       30.24S WCI  -4
PINE BLUFFS    FAIR      10   5  79 N7        30.18S WCI   0

$$


USA.gov is the U.S. government's official web portal to all federal, state and local government web resources and services.